sat.trackr.live / text

‹ back to catalog

STARLINK-30808

NORAD 58250 · 2023-171W

PAYLOAD ACTIVE UNKNOWN

§ Identity

Operator
Country
US
Launch date
2023-11-08
Launch site
AFETR
Launch vehicle
Mass (kg)
RCS (m²)

Purposes: comms

External: N2YO · Heavens-Above · Gunter

§ Orbital elements

Epoch: 2026-05-24T14:42:55.462752Z

Period
94.26 min
Inclination
42.9996°
Eccentricity
0.0001952
Mean motion
15.27759407 rev/d
Perigee alt
481.2 km
Apogee alt
483.9 km
Semi-major
6,860.6 km
B*
1.0993e-3
RAAN
216.6345°
Arg perigee
271.1881°
Mean anomaly
88.8747°
Rev number
14,134

§ Raw data

STARLINK-308081 58250U 23171W   26144.61314193  .00030280  00000+0  10993-2 0  99952 58250  42.9996 216.6345 0001952 271.1881  88.8747 15.27759407141345

JSON: /api/v1/satellites/58250 · /tle

For live sub-satellite position, see the globe view (requires WebGL).

§ Visibility from observer

Set your observer location to see the next 7 days of passes ≥ 10°. The values pass through the URL so the page stays shareable.

No JS? Fill the form by hand. The geolocation button needs JavaScript.